1504749600.08,39547,14.13,73450.8,1.43,0.97,0.97,0,*77
1504749601.31,39548,14.13,73454.5,1.45,0.87,0.83,0,*7A
1504749602.53,39549,14.13,73450.5,1.45,0.59,0.59,0,*7F
1504749603.78,39550,14.13,73450.5,1.43,0.55,0.55,0,*71
1504749605.0,39551,14.13,73448.8,1.39,0.41,0.33,0,*78
1504749606.24,39552,14.13,73450.8,1.43,0.25,0.25,0,*73
1504749607.41,39553,14.13,73446.5,1.39,0.05,0.05,0,*7F
1504749608.63,39554,14.13,73448.3,1.45,0.25,0.21,0,*77
1504749609.85,39555,14.13,73448.3,1.39,0.29,0.17,0,*74
1504749611.07,39556,14.13,73444.0,1.39,0.29,0.29,0,*7A
1504749612.3,39557,14.13,73444.8,1.37,0.41,0.33,0,*70
1504749613.54,39558,14.13,73420.8,1.37,0.33,0.41,0,*7F
1504749614.75,39559,14.13,73428.5,1.35,0.17,0.13,0,*7D
1504749615.99,39560,14.13,73420.8,1.37,0.29,0.29,0,*71
1504749617.19,39561,14.13,73428.3,1.35,0.17,0.17,0,*72
1504749618.4,39562,14.13,73424.5,1.35,0.25,0.13,0,*74
1504749619.61,39563,14.13,73434.3,1.35,0.13,0.13,0,*70
1504749620.82,39564,14.13,73432.8,1.35,0.13,0.13,0,*77
1504749622.06,39565,14.13,73428.5,1.33,0.21,0.13,0,*71
1504749623.3,39566,14.13,73432.3,1.33,0.21,0.21,0,*73
1504749624.51,39567,14.13,73438.0,1.31,0.33,0.37,0,*74
1504749625.75,39568,14.13,73432.0,1.33,0.25,0.33,0,*7A
1504749626.97,39569,14.13,73428.3,1.31,0.33,0.21,0,*7D
1504749628.18,39570,14.13,73426.8,1.31,0.33,0.25,0,*71
1504749629.39,39571,14.13,73428.8,1.31,0.37,0.33,0,*73
1504749630.61,39572,14.13,73430.3,1.31,0.47,0.47,0,*74
1504749631.77,39573,14.13,73422.5,1.31,0.43,0.43,0,*75
1504749633.0,39574,14.13,73420.5,1.31,0.47,0.55,0,*71
1504749634.24,39575,14.13,73400.0,1.33,0.47,0.47,0,*71
1504749635.46,39576,14.13,73388.8,1.31,0.47,0.47,0,*70
1504749636.68,39577,14.13,73392.0,1.31,0.47,0.47,0,*71
1504749637.9,39578,14.13,73398.0,1.31,0.47,0.47,0,*7E
1504749639.13,39579,14.13,73396.8,1.31,0.47,0.55,0,*7C
1504749640.32,39580,14.13,73402.8,1.31,0.43,0.47,0,*7D
1504749641.48,39581,14.13,73404.3,1.31,0.43,0.43,0,*78
1504749642.69,39582,14.13,73420.5,1.31,0.25,0.33,0,*7C
1504749643.91,39583,14.13,73420.0,1.31,0.33,0.33,0,*7A
1504749645.07,39584,14.13,73426.8,1.31,0.43,0.43,0,*7D
1504749646.28,39585,14.13,73422.3,1.33,0.43,0.37,0,*7D
1504749647.49,39586,14.13,73424.5,1.31,0.37,0.37,0,*7F
1504749648.69,39587,14.13,73420.0,1.31,0.47,0.43,0,*7A
1504749649.9,39588,14.13,73424.5,1.31,0.37,0.37,0,*71
1504749651.12,39589,14.13,73420.8,1.31,0.25,0.33,0,*77
1504749652.36,39590,14.13,73432.0,1.29,0.21,0.21,0,*71
1504749653.6,39591,14.13,73432.8,1.29,0.33,0.29,0,*7B
1504749654.83,39592,14.13,73436.0,1.29,0.33,0.33,0,*73
1504749656.07,39593,14.13,73434.8,1.29,0.29,0.33,0,*79
1504749657.3,39594,14.13,73442.8,1.29,0.41,0.33,0,*70
1504749658.54,39595,14.13,73440.3,1.29,0.33,0.33,0,*74
1504749659.77,39596,14.13,73442.8,1.29,0.41,0.33,0,*72
1504749661.01,39597,14.13,73442.0,1.29,0.33,0.21,0,*75
1504749662.23,39598,14.13,73434.3,1.29,0.17,0.09,0,*46
1504749663.39,39599,14.13,73438.3,1.27,0.09,0.05,0,*7A
1504749664.58,39600,14.13,73434.8,1.27,0.17,0.09,0,*4A
1504749665.8,39601,14.13,73436.8,1.27,0.21,0.21,0,*74
1504749667.05,39602,14.13,73436.0,1.29,0.21,0.21,0,*79
1504749668.26,39603,14.13,73434.8,1.27,0.17,0.17,0,*76
1504749669.43,39604,14.13,73426.3,1.27,-0.03,0.05,0,*5A
1504749670.64,39605,14.13,73426.0,1.27,-0.27,-0.19,0,*7D
1504749671.82,39606,14.13,73408.8,1.27,-0.33,-0.33,0,*73
1504749673.05,39607,14.13,73406.3,1.25,-0.85,-0.81,0,*74
1504749674.24,39608,14.13,73418.3,1.23,-0.57,-0.57,0,*79
1504749675.42,39609,14.13,73416.0,1.23,-0.49,-0.57,0,*77
1504749676.63,39610,14.13,73420.3,1.17,-0.57,-0.57,0,*77
1504749677.84,39611,14.13,73410.8,1.17,-0.53,-0.65,0,*73
1504749679.04,39612,14.13,73420.0,1.17,-0.53,-0.57,0,*71
1504749680.25,39613,14.13,73412.0,1.17,-0.57,-0.57,0,*74
1504749681.46,39614,14.13,73422.0,1.17,-0.65,-0.65,0,*73
1504749682.65,39615,14.13,73404.5,1.15,-0.69,-0.69,0,*70
1504749683.86,39616,14.13,73410.5,1.13,-0.61,-0.73,0,*76
1504749685.07,39617,14.13,73408.8,1.13,-0.69,-0.69,0,*74
1504749686.26,39618,14.13,73418.8,1.15,-0.45,-0.53,0,*7A
1504749687.44,39619,14.13,73426.0,1.11,-0.49,-0.57,0,*77
1504749688.63,39620,14.13,73416.0,1.11,-0.73,-0.61,0,*71
1504749689.83,39621,14.13,73428.0,1.09,-0.53,-0.61,0,*7B
1504749691.04,39622,14.13,73424.8,1.11,-0.65,-0.85,0,*7E
1504749692.31,39623,14.13,73406.8,1.09,-1.01,-1.13,0,*7B
1504749693.57,39624,14.13,73418.8,1.09,-1.01,-1.13,0,*7C
1504749694.79,39625,14.13,73418.5,1.07,-1.25,-1.29,0,*7C
1504749696.02,39626,14.13,73422.0,1.05,-1.29,-1.39,0,*70
1504749697.24,39627,14.13,73420.8,1.05,-1.33,-1.39,0,*7A
1504749698.43,39628,14.13,73406.3,1.05,-1.25,-1.25,0,*7F
1504749699.63,39629,14.13,73418.0,1.01,-1.21,-1.21,0,*7A
1504749700.87,39630,14.13,73432.5,1.01,-0.97,-1.05,0,*48
1504749702.1,39631,14.19,73434.5,1.01,-0.93,-0.97,0,*77
1504749703.27,39632,14.13,73436.5,1.01,-0.61,-0.61,0,*70
1504749704.46,39633,14.13,73436.5,1.01,-0.45,-0.45,0,*71
1504749705.66,39634,14.13,73424.5,0.99,-0.57,-0.61,0,*43
1504749706.87,39635,14.13,73418.8,0.99,-0.49,-0.57,0,*48
1504749708.12,39636,14.13,73418.0,0.99,-0.23,-0.23,0,*44
1504749709.33,39637,14.13,73418.5,0.99,-0.49,-0.45,0,*49
1504749710.54,39638,14.13,73422.3,0.99,-0.45,-0.45,0,*4A
1504749711.72,39639,14.13,73428.5,0.97,-0.45,-0.45,0,*45
1504749712.93,39640,14.13,73432.8,0.99,-0.45,-0.45,0,*45
1504749714.14,39641,14.13,73442.5,0.99,-0.45,-0.49,0,*48
1504749715.36,39642,14.13,73450.3,0.99,-0.37,-0.37,0,*47
1504749716.54,39643,14.13,73442.5,0.97,-0.37,-0.37,0,*48
1504749717.77,39644,14.13,73438.3,0.99,-0.33,-0.27,0,*44
1504749719.0,39645,14.13,73438.0,0.99,-0.33,-0.27,0,*45
1504749720.21,39646,14.13,73438.8,0.99,-0.37,-0.45,0,*46
1504749721.42,39647,14.13,73444.0,0.99,-0.33,-0.33,0,*42
1504749722.61,39648,14.13,73444.3,0.97,-0.11,-0.15,0,*47
1504749723.82,39649,14.13,73446.3,0.99,-0.33,-0.33,0,*4C
1504749725.03,39650,14.13,73428.5,0.99,-0.45,-0.37,0,*41
1504749726.24,39651,14.13,73426.5,0.99,-0.33,-0.33,0,*45
1504749727.5,39652,14.13,73430.5,0.99,-0.27,-0.27,0,*46
1504749728.73,39653,14.13,73438.8,0.97,-0.27,-0.27,0,*49
1504749729.94,39654,14.13,73434.5,0.97,-0.27,-0.33,0,*4B
1504749731.11,39655,14.13,73438.0,0.97,-0.33,-0.45,0,*4E
1504749732.3,39656,14.13,73438.0,0.97,-0.33,-0.33,0,*4C
1504749733.53,39657,14.13,73432.3,0.97,-0.27,-0.27,0,*4D
1504749734.74,39658,14.13,73428.3,0.97,-0.27,-0.33,0,*47
1504749735.97,39659,14.13,73420.8,0.97,-0.27,-0.27,0,*43
1504749737.15,39660,14.13,73424.3,0.97,-0.03,-0.15,0,*7E
1504749738.34,39661,14.13,73432.3,0.97,-0.11,-0.11,0,*48
1504749739.55,39662,14.13,73428.5,0.99,-0.11,-0.03,0,*76
1504749740.72,39663,14.13,73428.3,0.97,-0.03,-0.03,0,*4A
1504749741.94,39664,14.13,73428.3,0.99,-0.11,-0.15,0,*47
1504749743.12,39665,14.13,73432.3,0.97,-0.03,-0.11,0,*7F
1504749744.31,39666,14.13,73436.0,0.97,-0.03,-0.11,0,*7C
1504749745.49,39667,14.13,73432.3,0.97,-0.11,-0.03,0,*7D
1504749746.68,39668,14.13,73430.5,0.97,-0.11,-0.15,0,*45
1504749747.89,39669,14.13,73416.3,0.97,-0.23,-0.15,0,*45
1504749749.15,39670,14.13,73412.0,0.99,-0.23,-0.23,0,*46
1504749750.36,39671,14.13,73422.5,0.99,-0.15,-0.15,0,*47
1504749751.54,39672,14.13,73432.0,0.97,-0.11,-0.03,0,*79
1504749752.71,39673,14.13,73428.8,0.97,-0.03,-0.03,0,*4B
1504749753.9,39674,14.13,73424.5,0.97,-0.11,-0.03,0,*7F
1504749755.1,39675,14.13,73428.3,0.99,-0.03,-0.03,0,*43
1504749756.28,39676,14.13,73430.0,0.99,0.01,0.01,0,*40
1504749757.45,39677,14.13,73428.0,0.97,-0.03,0.01,0,*60
1504749758.61,39678,14.13,73426.3,0.97,0.01,-0.03,0,*6F
1504749759.82,39679,14.13,73418.5,0.99,-0.11,-0.03,0,*7C
1504749761.03,39680,14.13,73420.0,0.99,-0.03,-0.11,0,*7A
1504749762.22,39681,14.13,73408.8,0.97,-0.03,-0.11,0,*75
1504749763.38,39682,14.13,73414.5,0.97,0.01,-0.03,0,*6A
1504749764.59,39683,14.13,73400.8,0.99,-0.11,-0.03,0,*79
1504749765.78,39684,14.13,73408.5,0.97,-0.11,-0.11,0,*43
1504749766.96,39685,14.19,73418.3,0.97,-0.03,-0.11,0,*71
1504749768.15,39686,14.13,73416.0,0.97,-0.03,-0.15,0,*76
1504749769.36,39687,14.13,73420.0,0.99,-0.03,-0.11,0,*7D
1504749770.55,39688,14.13,73414.8,0.99,0.09,0.09,0,*41
1504749771.73,39689,14.13,73422.8,0.99,0.01,0.01,0,*40
1504749772.92,39690,14.13,73422.3,0.97,0.13,0.09,0,*7D
1504749774.11,39691,14.13,73428.5,0.99,0.09,0.09,0,*49
1504749775.28,39692,14.13,73432.3,0.97,0.09,0.09,0,*44
1504749776.44,39693,14.13,73430.5,0.97,0.01,0.01,0,*45
1504749777.66,39694,14.13,73432.0,0.97,0.13,0.21,0,*43
1504749778.9,39695,14.13,73430.8,0.99,0.21,0.13,0,*4C
1504749780.14,39696,14.13,73446.0,0.99,0.13,0.13,0,*4E
1504749781.38,39697,14.13,73440.8,0.99,0.21,0.13,0,*4E
1504749782.62,39698,14.13,73442.0,0.99,0.21,0.21,0,*40
1504749783.87,39699,14.13,73434.5,0.99,0.21,0.21,0,*41
1504749785.11,39700,14.13,73434.5,0.99,0.21,0.13,0,*41
1504749786.36,39701,14.13,73432.3,0.99,0.21,0.21,0,*41
1504749787.61,39702,14.13,73436.5,0.99,0.21,0.21,0,*42
1504749788.86,39703,14.13,73442.0,0.99,0.21,0.21,0,*43
1504749790.1,39704,14.13,73434.3,0.99,0.21,0.21,0,*44
1504749791.32,39705,14.13,73438.5,1.01,0.29,0.25,0,*79
1504749792.56,39706,14.13,73436.8,0.99,0.25,0.21,0,*42
1504749793.78,39707,14.19,73440.0,1.01,0.29,0.29,0,*77
1504749795.02,39708,14.13,73436.5,1.03,0.29,0.33,0,*71
1504749796.23,39709,14.13,73438.0,1.01,0.33,0.29,0,*72
1504749797.45,39710,14.13,73442.5,1.01,0.29,0.33,0,*7A
1504749798.66,39711,14.13,73440.3,1.01,0.33,0.33,0,*70
1504749799.9,39712,14.13,73442.0,1.03,0.33,0.41,0,*74
1504749801.11,39713,14.13,73442.0,1.01,0.41,0.41,0,*72
1504749802.35,39714,14.13,73442.8,1.03,0.41,0.41,0,*77
1504749803.59,39715,14.13,73444.0,1.03,0.33,0.41,0,*73
1504749804.77,39716,14.13,73436.5,1.01,0.43,0.41,0,*75
1504749805.99,39717,14.13,73434.3,1.03,0.41,0.43,0,*76
1504749807.21,39718,14.13,73438.8,1.03,0.51,0.43,0,*78
1504749808.45,39719,14.13,73436.8,1.03,0.41,0.41,0,*7A
1504749809.66,39720,14.13,73436.0,1.05,0.33,0.37,0,*72
1504749810.9,39721,14.13,73432.8,1.03,0.41,0.33,0,*74
1504749812.11,39722,14.13,73432.5,1.01,0.33,0.33,0,*70
1504749813.35,39723,14.13,73434.0,1.03,0.33,0.29,0,*78
1504749814.59,39724,14.13,73432.8,1.03,0.29,0.33,0,*7F
1504749815.83,39725,14.13,73432.8,1.03,0.33,0.33,0,*75
1504749817.04,39726,14.13,73438.0,1.03,0.41,0.43,0,*74
1504749818.27,39727,14.13,73440.5,1.05,0.47,0.47,0,*71
1504749819.46,39728,14.13,73436.8,1.05,0.37,0.43,0,*7D
1504749820.67,39729,14.13,73440.0,1.05,0.37,0.33,0,*7B
1504749821.88,39730,14.13,73442.3,1.05,0.33,0.33,0,*77
1504749823.1,39731,14.19,73442.8,1.05,0.29,0.33,0,*7D
1504749824.31,39732,14.13,73440.3,1.05,0.29,0.33,0,*7E
1504749825.53,39733,14.13,73444.0,1.05,0.29,0.33,0,*7F
1504749826.75,39734,14.13,73440.8,1.05,0.33,0.37,0,*77
1504749827.96,39735,14.13,73440.0,1.05,0.33,0.33,0,*72
1504749829.17,39736,14.19,73440.8,1.05,0.33,0.33,0,*71
1504749830.41,39737,14.13,73436.3,1.07,0.37,0.37,0,*72
1504749831.63,39738,14.13,73440.0,1.05,0.37,0.47,0,*78
1504749832.85,39739,14.19,73440.5,1.07,0.43,0.47,0,*78
1504749834.06,39740,14.19,73440.3,1.05,0.55,0.43,0,*77
1504749835.31,39741,14.13,73442.0,1.07,0.47,0.47,0,*73
1504749836.56,39742,14.19,73442.5,1.07,0.47,0.47,0,*70
1504749837.82,39743,14.19,73442.3,1.07,0.55,0.55,0,*71
1504749839.07,39744,14.13,73436.8,1.07,0.55,0.47,0,*75
1504749840.3,39745,14.13,73436.5,1.07,0.43,0.47,0,*73
1504749841.49,39746,14.13,73440.3,1.07,0.43,0.43,0,*74
1504749842.74,39747,14.13,73440.5,1.07,0.37,0.37,0,*75
1504749843.95,39748,14.19,73446.3,1.05,0.37,0.33,0,*7C
1504749845.19,39749,14.13,73444.0,1.07,0.33,0.33,0,*7B
1504749846.43,39750,14.13,73440.5,1.07,0.33,0.37,0,*77
1504749847.68,39751,14.13,73438.8,1.07,0.33,0.33,0,*72
1504749848.92,39752,14.13,73442.3,1.07,0.33,0.33,0,*71
1504749850.16,39753,14.13,73442.8,1.07,0.29,0.29,0,*70
1504749851.42,39754,14.19,73442.5,1.07,0.21,0.21,0,*77
1504749852.67,39755,14.13,73438.5,1.07,0.21,0.21,0,*76
1504749853.89,39756,14.19,73438.0,1.05,0.21,0.29,0,*7F
1504749855.14,39757,14.13,73432.0,1.07,0.29,0.29,0,*74
1504749856.36,39758,14.19,73428.0,1.05,0.29,0.29,0,*79
1504749857.57,39759,14.19,73426.0,1.05,0.33,0.37,0,*7C
1504749858.77,39760,14.19,73426.8,1.05,0.47,0.43,0,*76
1504749859.99,39761,14.19,73420.3,1.05,0.55,0.47,0,*70
1504749861.25,39762,14.13,73424.0,1.07,0.55,0.47,0,*71
1504749862.49,39763,14.13,73426.8,1.09,0.51,0.63,0,*7C
1504749863.74,39764,14.19,73428.8,1.09,0.51,0.59,0,*72
1504749864.99,39765,14.19,73422.3,1.09,0.59,0.59,0,*7B
1504749866.23,39766,14.13,73416.3,1.09,0.59,0.59,0,*78
1504749867.48,39767,14.19,73428.3,1.09,0.59,0.59,0,*79
1504749868.73,39768,14.13,73424.3,1.09,0.51,0.59,0,*7E
1504749869.98,39769,14.13,73420.5,1.09,0.47,0.51,0,*70
1504749871.22,39770,14.13,73424.0,1.09,0.59,0.51,0,*77
1504749872.44,39771,14.13,73422.5,1.11,0.63,0.63,0,*77
1504749873.68,39772,14.19,73432.8,1.09,0.51,0.63,0,*7C
1504749874.91,39773,14.19,73436.3,1.11,0.55,0.63,0,*70
1504749876.15,39774,14.19,73438.3,1.09,0.51,0.59,0,*73
1504749877.37,39775,14.19,73440.8,1.11,0.59,0.63,0,*7A
1504749878.59,39776,14.13,73440.5,1.11,0.63,0.63,0,*70
1504749879.82,39777,14.19,73436.5,1.11,0.55,0.63,0,*74
1504749881.04,39778,14.19,73442.5,1.11,0.55,0.63,0,*7B
1504749882.25,39779,14.19,73444.5,1.11,0.63,0.67,0,*7B
1504749883.5,39780,14.19,73440.0,1.09,0.59,0.59,0,*70
1504749884.73,39781,14.19,73436.3,1.11,0.55,0.55,0,*78
1504749885.95,39782,14.19,73434.3,1.11,0.55,0.63,0,*7E
1504749887.18,39783,14.19,73436.5,1.11,0.55,0.63,0,*7F
1504749888.4,39784,14.19,73440.5,1.11,0.55,0.63,0,*78
1504749889.63,39785,14.19,73442.0,1.11,0.55,0.63,0,*79
1504749890.85,39786,14.19,73440.8,1.11,0.63,0.63,0,*7F
1504749892.06,39787,14.13,73440.5,1.11,0.63,0.63,0,*7E
1504749893.29,39788,14.19,73442.3,1.11,0.55,0.63,0,*74
1504749894.54,39789,14.13,73438.0,1.13,0.55,0.67,0,*73
1504749895.78,39790,14.19,73444.3,1.13,0.55,0.67,0,*7B
1504749897.03,39791,14.13,73446.0,1.13,0.63,0.63,0,*7B
1504749898.28,39792,14.19,73444.3,1.13,0.63,0.55,0,*7D
1504749899.5,39793,14.19,73446.0,1.15,0.67,0.59,0,*72
1504749900.71,39794,14.19,73448.5,1.15,0.67,0.67,0,*78
1504749901.96,39795,14.19,73446.0,1.13,0.41,0.51,0,*7E
1504749903.18,39796,14.19,73444.5,1.13,0.41,0.43,0,*7E
1504749904.43,39797,14.19,73440.8,1.13,0.41,0.41,0,*7D
1504749905.62,39798,14.13,73440.5,1.13,0.43,0.43,0,*72
1504749906.84,39799,14.13,73442.0,1.13,0.43,0.41,0,*71
1504749908.05,39800,14.19,73444.8,1.13,0.43,0.41,0,*7E
1504749909.26,39801,14.19,73440.8,1.13,0.43,0.41,0,*7F
1504749910.51,39802,14.19,73442.5,1.13,0.41,0.41,0,*7E
1504749911.73,39803,14.13,73440.5,1.11,0.41,0.37,0,*7C
1504749912.97,39804,14.19,73442.0,1.13,0.29,0.37,0,*77
1504749914.22,39805,14.13,73440.3,1.13,0.37,0.37,0,*79
1504749915.46,39806,14.19,73444.0,1.13,0.37,0.37,0,*7A
1504749916.63,39807,14.19,73440.3,1.11,0.43,0.43,0,*79
1504749917.82,39808,14.19,73440.0,1.11,0.43,0.41,0,*74
1504749919.01,39809,14.19,73444.3,1.11,0.43,0.51,0,*74
1504749920.21,39810,14.19,73442.8,1.11,0.55,0.43,0,*78
1504749921.38,39811,14.19,73440.3,1.11,0.43,0.43,0,*7E
1504749922.6,39812,14.19,73442.0,1.11,0.41,0.41,0,*7D
1504749923.84,39813,14.13,73436.5,1.13,0.41,0.41,0,*7E
1504749925.08,39814,14.19,73438.3,1.13,0.41,0.41,0,*79
1504749926.28,39815,14.19,73436.0,1.13,0.43,0.43,0,*78
1504749927.53,39816,14.19,73438.3,1.13,0.51,0.55,0,*7F
1504749928.78,39817,14.19,73442.5,1.13,0.55,0.51,0,*7E
1504749930.0,39818,14.19,73442.0,1.13,0.43,0.51,0,*76
1504749931.25,39819,14.19,73440.8,1.13,0.41,0.41,0,*74
1504749932.46,39820,14.13,73436.5,1.11,0.41,0.41,0,*7C
1504749933.68,39821,14.19,73438.0,1.11,0.29,0.37,0,*72
1504749934.9,39822,14.19,73440.3,1.11,0.37,0.37,0,*7E
1504749936.09,39823,14.19,73440.3,1.11,0.43,0.41,0,*7D
1504749937.32,39824,14.19,73442.5,1.11,0.55,0.55,0,*78
1504749938.54,39825,14.19,73442.0,1.11,0.63,0.63,0,*79
1504749939.75,39826,14.19,73440.0,1.11,0.63,0.63,0,*7A
1504749940.98,39827,14.19,73442.0,1.11,0.51,0.55,0,*7F
1504749942.2,39828,14.19,73442.8,1.11,0.51,0.55,0,*70
1504749943.46,39829,14.19,73440.8,1.13,0.55,0.55,0,*77
1504749944.71,39830,14.19,73440.5,1.13,0.55,0.55,0,*7F
1504749945.96,39831,14.19,73440.8,1.13,0.55,0.63,0,*7B
1504749947.22,39832,14.19,73440.8,1.13,0.51,0.51,0,*7D
1504749948.47,39833,14.13,73436.0,1.13,0.51,0.51,0,*7C
1504749949.72,39834,14.19,73436.3,1.13,0.51,0.51,0,*7B
1504749950.91,39835,14.13,73438.0,1.15,0.43,0.47,0,*78
1504749952.12,39836,14.13,73438.5,1.15,0.47,0.43,0,*7B
1504749953.36,39837,14.19,73438.3,1.13,0.41,0.41,0,*78
1504749954.6,39838,14.19,73442.8,1.13,0.41,0.41,0,*77
1504749955.83,39839,14.19,73436.8,1.13,0.41,0.43,0,*74
1504749957.07,39840,14.19,73438.5,1.13,0.41,0.41,0,*78
1504749958.31,39841,14.13,73432.0,1.13,0.41,0.41,0,*79
1504749959.55,39842,14.19,73434.3,1.13,0.37,0.41,0,*7B
1504749960.8,39843,14.19,73442.5,1.13,0.37,0.41,0,*7A
1504749962.04,39844,14.19,73444.0,1.13,0.25,0.29,0,*70
1504749963.29,39845,14.19,73446.8,1.13,0.25,0.29,0,*71
1504749964.54,39846,14.19,73446.0,1.13,0.29,0.29,0,*7E
1504749965.78,39847,14.19,73442.8,1.13,0.29,0.29,0,*7F
1504749967.0,39848,14.19,73442.0,1.11,0.37,0.37,0,*72
1504749968.22,39849,14.19,73444.8,1.11,0.37,0.37,0,*73
1504749969.44,39850,14.19,73436.3,1.11,0.37,0.37,0,*7B
1504749970.65,39851,14.13,73438.5,1.11,0.37,0.37,0,*7A
1504749971.87,39852,14.19,73438.8,1.11,0.25,0.29,0,*75
1504749973.09,39853,14.19,73434.5,1.11,0.25,0.17,0,*79
1504749974.31,39854,14.19,73444.3,1.11,0.21,0.25,0,*7B
1504749975.53,39855,14.19,73442.3,1.11,0.25,0.25,0,*7E
1504749976.75,39856,14.13,73434.0,1.11,0.29,0.37,0,*72
1504749977.99,39857,14.19,73436.8,1.09,0.25,0.25,0,*75
1504749979.23,39858,14.19,73440.3,1.09,0.33,0.33,0,*7A
1504749980.44,39859,14.19,73440.0,1.11,0.37,0.37,0,*72
1504749981.68,39860,14.13,73432.0,1.09,0.33,0.33,0,*71
1504749982.92,39861,14.19,73434.5,1.09,0.33,0.33,0,*70
1504749984.15,39862,14.19,73434.5,1.09,0.33,0.33,0,*73
1504749985.37,39863,14.19,73434.5,1.11,0.33,0.25,0,*7C
1504749986.61,39864,14.19,73428.8,1.09,0.25,0.33,0,*72
1504749987.84,39865,14.19,73428.3,1.09,0.33,0.25,0,*73
1504749989.09,39866,14.19,73428.0,1.07,0.29,0.29,0,*79
1504749990.33,39867,14.19,73432.3,1.09,0.33,0.33,0,*76
1504749991.57,39868,14.19,73430.3,1.09,0.37,0.33,0,*7D
1504749992.81,39869,14.19,73430.0,1.09,0.41,0.37,0,*79
1504749994.05,39870,14.19,73432.0,1.09,0.47,0.41,0,*76
1504749995.3,39871,14.19,73438.3,1.09,0.47,0.41,0,*77
1504749996.54,39872,14.19,73434.0,1.09,0.37,0.37,0,*72
1504749997.75,39873,14.13,73428.8,1.11,0.41,0.41,0,*7A
1504749998.99,39874,14.19,73428.0,1.09,0.33,0.33,0,*74
1504750000.23,39875,14.19,73430.8,1.09,0.25,0.25,0,*75
1504750001.47,39876,14.19,73434.5,1.09,0.33,0.33,0,*76
1504750002.71,39877,14.19,73442.8,1.09,0.37,0.33,0,*73
1504750003.94,39878,14.19,73446.0,1.09,0.33,0.33,0,*78
1504750005.18,39879,14.19,73444.3,1.09,0.33,0.33,0,*79
1504750006.42,39880,14.19,73444.5,1.09,0.33,0.33,0,*7F
1504750007.66,39881,14.19,73440.0,1.09,0.25,0.25,0,*7E
1504750008.9,39882,14.19,73440.0,1.09,0.25,0.33,0,*7A
1504750010.14,39883,14.19,73438.5,1.09,0.21,0.21,0,*7C
1504750011.39,39884,14.19,73442.8,1.09,0.25,0.25,0,*7B
1504750012.63,39885,14.19,73438.8,1.09,0.21,0.21,0,*7A
1504750013.87,39886,14.19,73438.0,1.09,0.25,0.25,0,*79
1504750015.11,39887,14.19,73420.5,1.09,0.33,0.33,0,*78
1504750016.35,39888,14.19,73420.8,1.09,0.25,0.25,0,*77
1504750017.59,39889,14.19,73422.0,1.09,0.33,0.33,0,*76
1504750018.82,39890,14.19,73424.8,1.09,0.33,0.33,0,*7E
1504750020.06,39891,14.19,73424.8,1.09,0.33,0.33,0,*7F
1504750021.3,39892,14.19,73434.8,1.09,0.37,0.33,0,*78
1504750022.54,39893,14.19,73430.0,1.09,0.41,0.37,0,*7C
1504750023.78,39894,14.19,73428.0,1.07,0.37,0.33,0,*70
1504750025.03,39895,14.19,73428.3,1.07,0.37,0.33,0,*71
1504750026.27,39896,14.19,73434.0,1.07,0.37,0.37,0,*76
1504750027.51,39897,14.19,73432.3,1.09,0.37,0.37,0,*79
1504750028.75,39898,14.19,73434.3,1.09,0.33,0.25,0,*71
1504750029.99,39899,14.19,73428.8,1.09,0.33,0.33,0,*77
1504750031.23,39900,14.19,73420.8,1.09,0.41,0.41,0,*76
1504750032.47,39901,14.19,73428.3,1.09,0.41,0.37,0,*76
1504750033.72,39902,14.19,73432.5,1.09,0.41,0.47,0,*72
1504750034.96,39903,14.19,73434.8,1.09,0.41,0.41,0,*75
1504750036.2,39904,14.19,73440.3,1.09,0.41,0.37,0,*73
1504750037.44,39905,14.19,73436.8,1.09,0.41,0.41,0,*73
1504750038.69,39906,14.19,73442.5,1.09,0.41,0.47,0,*76
1504750039.91,39907,14.19,73444.0,1.11,0.51,0.51,0,*78
1504750041.16,39908,14.19,73438.3,1.09,0.41,0.47,0,*78
1504750042.32,39909,14.19,73434.3,1.11,0.43,0.43,0,*76
1504750043.57,39910,14.19,73432.0,1.09,0.41,0.37,0,*76
1504750044.81,39911,14.19,73446.3,1.09,0.41,0.47,0,*70
1504750046.05,39912,14.19,73444.5,1.09,0.37,0.37,0,*75
1504750047.3,39913,14.19,73442.8,1.09,0.25,0.21,0,*70
1504750048.55,39914,14.19,73444.0,1.09,0.25,0.21,0,*77
1504750049.78,39915,14.19,73440.3,1.09,0.37,0.33,0,*76
1504750051.02,39916,14.19,73438.0,1.09,0.41,0.41,0,*71
1504750052.25,39917,14.19,73438.8,1.11,0.51,0.51,0,*79
1504750053.5,39918,14.19,73440.3,1.09,0.51,0.51,0,*7F
1504750054.74,39919,14.19,73440.8,1.09,0.59,0.59,0,*7E
1504750055.96,39920,14.19,73434.8,1.11,0.63,0.63,0,*7D
1504750057.2,39921,14.19,73438.5,1.09,0.63,0.59,0,*7C
1504750058.45,39922,14.19,73438.5,1.09,0.59,0.71,0,*7C
1504750059.69,39923,14.19,73434.8,1.09,0.51,0.59,0,*7F
1504750060.92,39924,14.19,73432.8,1.11,0.51,0.55,0,*7D
1504750062.14,39925,14.19,73428.5,1.13,0.43,0.51,0,*79
1504750063.36,39926,14.19,73430.0,1.13,0.51,0.43,0,*7A
1504750064.62,39927,14.19,73428.0,1.13,0.55,0.51,0,*7C
1504750065.87,39928,14.19,73422.5,1.13,0.63,0.55,0,*72
1504750067.08,39929,14.19,73422.8,1.11,0.67,0.63,0,*70
1504750068.3,39930,14.19,73420.8,1.11,0.63,0.63,0,*7C
1504750069.53,39931,14.19,73424.0,1.11,0.55,0.55,0,*7D
1504750070.78,39932,14.19,73422.3,1.13,0.51,0.63,0,*7D
1504750072.0,39933,14.19,73426.0,1.11,0.51,0.51,0,*7F
1504750073.22,39934,14.19,73424.3,1.13,0.41,0.43,0,*78
1504750074.47,39935,14.19,73428.3,1.13,0.41,0.41,0,*7B
1504750075.68,39936,14.19,73428.5,1.13,0.43,0.41,0,*7A
1504750076.94,39937,14.19,73426.3,1.13,0.55,0.55,0,*79
1504750078.19,39938,14.19,73424.0,1.13,0.55,0.51,0,*72
1504750079.45,39939,14.19,73424.5,1.13,0.55,0.55,0,*77
1504750080.66,39940,14.19,73426.0,1.15,0.67,0.67,0,*7F
1504750081.9,39941,14.19,73424.8,1.13,0.63,0.67,0,*7C
1504750083.14,39942,14.19,73430.3,1.13,0.67,0.63,0,*7F
1504750084.36,39943,14.19,73432.0,1.15,0.67,0.71,0,*7B
1504750085.61,39944,14.19,73428.0,1.13,0.55,0.63,0,*78
1504750086.83,39945,14.19,73428.8,1.15,0.71,0.67,0,*7D
1504750088.09,39946,14.19,73434.5,1.13,0.55,0.59,0,*73
1504750089.33,39947,14.19,73434.8,1.13,0.67,0.63,0,*7A
1504750090.55,39948,14.19,73434.0,1.15,0.67,0.71,0,*70
1504750091.77,39949,14.19,73438.5,1.15,0.63,0.67,0,*72
1504750092.99,39950,14.19,73438.5,1.15,0.59,0.59,0,*7E
1504750094.22,39951,14.19,73440.0,1.15,0.59,0.59,0,*7F
1504750095.46,39952,14.19,73440.5,1.13,0.67,0.67,0,*7A
1504750096.67,39953,14.19,73438.5,1.15,0.67,0.67,0,*7D
1504750097.89,39954,14.19,73440.3,1.15,0.67,0.59,0,*77
1504750099.11,39955,14.19,73442.3,1.15,0.67,0.67,0,*7B
1504750100.34,39956,14.19,73442.8,1.17,0.67,0.67,0,*7A
1504750101.58,39957,14.19,73444.5,1.17,0.71,0.67,0,*7C
1504750102.82,39958,14.19,73444.3,1.17,0.59,0.67,0,*79
1504750104.06,39959,14.19,73448.3,1.17,0.55,0.67,0,*74
1504750105.31,39960,14.19,73440.8,1.17,0.59,0.55,0,*73
1504750106.55,39961,14.19,73446.0,1.17,0.59,0.59,0,*7E
1504750107.79,39962,14.19,73446.0,1.17,0.67,0.59,0,*70
1504750109.01,39963,14.19,73442.5,1.15,0.71,0.67,0,*79
1504750110.26,39964,14.19,73446.8,1.13,0.63,0.63,0,*7F
1504750111.5,39965,14.19,73444.5,1.17,0.67,0.71,0,*7D
1504750112.73,39966,14.19,73450.0,1.17,0.67,0.71,0,*7E
1504750113.97,39967,14.19,73452.0,1.17,0.59,0.67,0,*75
1504750115.21,39968,14.19,73448.8,1.17,0.67,0.67,0,*77
1504750116.44,39969,14.19,73444.0,1.17,0.67,0.67,0,*76
1504750117.67,39970,14.19,73446.8,1.17,0.67,0.67,0,*7E
1504750118.92,39971,14.19,73446.3,1.17,0.59,0.55,0,*73
1504750120.16,39972,14.19,73444.5,1.17,0.59,0.59,0,*7C
1504750121.4,39973,14.19,73444.0,1.17,0.59,0.67,0,*70
1504750122.64,39974,14.19,73446.3,1.17,0.59,0.67,0,*77
1504750123.89,39975,14.19,73448.0,1.17,0.47,0.47,0,*7B
1504750125.14,39976,14.19,73446.0,1.17,0.47,0.47,0,*78
1504750126.39,39977,14.19,73446.8,1.17,0.55,0.59,0,*75
1504750127.63,39978,14.19,73446.3,1.17,0.59,0.59,0,*76
1504750128.87,39979,14.19,73444.8,1.21,0.59,0.59,0,*72
1504750130.12,39980,14.19,73444.0,1.21,0.59,0.59,0,*74